OpenBCM V1.13 (Linux)

Packet Radio Mailbox

DB0FHN

[JN59NK Nuernberg]

 Login: GUEST





  
UA9FBV > KEPS     03.12.04 09:14l 165 Lines 7768 Bytes #999 (0) @ AMSAT
BID : ORB04337.N
Read: GUEST DL7NDR
Subj: 2Line Orbital Elements 04337.AMSAT
Path: DB0FHN<DB0RGB<OK0PPL<DB0RES<ER3KAZ<UA9FBV
Sent: 041203/0708Z @:UA9FBV.PRM.RUS.AS #:12123 [Perm] GATEWAY $:ORB04337.N
From: UA9FBV@UA9FBV.PRM.RUS.AS
To  : KEPS@AMSAT


HR AMSAT ORBITAL ELEMENTS FOR AMATEUR SATELLITES IN NASA FORMAT
FROM WA5QGD FORT WORTH,TX December 2, 2004
SEND SUBSCRIBE/UNSUBSCRIBE TO majordomo@amsat.org ONLY
BID: ORB04337.N

DECODE 2-LINE ELSETS WITH THE FOLLOWING KEY:
1 AAAAAU 00  0  0 BBBBB.BBBBBBBB  .CCCCCCCC  00000-0  00000-0 0  DDDZ
2 AAAAA EEE.EEEE FFF.FFFF GGGGGGG HHH.HHHH III.IIII JJ.JJJJJJJJKKKKKZ
KEY: A-CATALOGNUM B-EPOCHTIME C-DECAY D-ELSETNUM E-INCLINATION F-RAAN
G-ECCENTRICITY H-ARGPERIGEE I-MNANOM J-MNMOTION K-ORBITNUM Z-CHECKSUM

TO ALL RADIO AMATEURS BT

AO-07
1 07530U 74089B   04336.71085858 -.00000029  00000-0  10000-3 0  3542
2 07530 101.6590  20.6812 0012048 257.5187 102.4537 12.53569731374905
AO-10
1 14129U 83058B   04337.61987519  .00000000  00000-0  10000-3 0  1260
2 14129  26.8553  58.6578 6032795 145.5589 274.8028  2.05867929161485
UO-11
1 14781U 84021B   04337.02109395  .00000974  00000-0  13887-3 0  6506
2 14781  98.1905 324.7741 0008081 272.4972  87.5328 14.79093283112657
RS-10/11
1 18129U 87054A   04337.22829631  .00000089  00000-0  80826-4 0  5525
2 18129  82.9288  23.8297 0010624 207.8413 152.2172 13.72750138874050
FO-20
1 20480U 90013C   04337.07038738  .00000012  00000-0  10526-3 0  7561
2 20480  99.0199 182.7661 0540363 326.5240  30.2764 12.83344200694218
RS-12/13
1 21089U 91007A   04337.76171941  .00000038  00000-0  24190-4 0  7775
2 21089  82.9250  56.6646 0027631 267.4819  92.3202 13.74444257693510
RS-15
1 23439U 94085A   04336.79945213 -.00000039  00000-0  10597-3 0 08372
2 23439 064.8199 066.7742 0158158 351.1936 008.6222 11.27550430409133
FO-29
1 24278U 96046B   04337.26875384 -.00000024  00000-0  14255-4 0  8377
2 24278  98.5763  47.1535 0350431 326.5951  31.3507 13.52905402409569
SO-33
1 25509U 98061B   04337.24639000  .00000595  00000-0  10459-3 0  2495
2 25509  31.4324  65.7424 0356043 244.6106 111.7306 14.27933345318655
AO-40
1 26609U 00072B   04337.45653936  .00000000  00000-0  10000-3 0  4630
2 26609   9.2121 331.9373 7960547 344.0079   0.9003  1.25582601 18780
UO-14
1 20437U 90005B   04337.06983300  .00000082  00000-0  46286-4 0  6522
2 20437  98.2002 351.7694 0011752  62.6153 297.6224 14.31386127775831
AO-16
1 20439U 90005D   04337.52981600  .00000099  00000-0  52460-4 0  3410
2 20439  98.2268   7.1136 0011981  69.1763 291.0714 14.31646143775955
WO-18
1 20441U 90005F   04336.91572307  .00000080  00000-0  45146-4 0  5319
2 20441  98.2409  10.6876 0012668  71.0606 289.1972 14.31720500775927
LO-19
1 20442U 90005G   04337.65618567  .00000103  00000-0  53579-4 0  2672
2 20442  98.2512  15.5887 0012990  66.3281 293.9264 14.31893059776099
UO-22
1 21575U 91050B   04337.83580550  .00000145  00000-0  59864-4 0  2692
2 21575  98.2180 304.8833 0006701 328.1255  31.9531 14.39441341702251
KO-23
1 22077U 92052B   04337.37559920 -.00000037  00000-0  10000-3 0  3284
2 22077  66.0868 198.6227 0012512 302.6659  57.3157 12.86427726578273
AO-27
1 22825U 93061C   04337.87797366  .00000129  00000-0  66771-4 0    37
2 22825  98.2448 337.8669 0009318 121.6887 238.5183 14.29101591583180
IO-26
1 22826U 93061D   04337.03242057  .00000106  00000-0  57724-4 0  6712
2 22826  98.2411 338.3564 0009601 120.9061 239.3074 14.29339378583120
KO-25
1 22828U 93061F   04337.00310611 -.00000057  00000-0 -65097-5 0  9356
2 22828  98.2349 338.5551 0010980 102.8012 257.4416 14.29656272551342
TO-31
1 25396U 98043C   04336.84915854 -.00000043  00000-0  00000 0 0  1167
2 25396  98.5573  43.7785 0003175  51.7638 308.3827 14.23646543332337
GO-32
1 25397U 98043D   04337.83622801 -.00000062  00000-0 -87121-5 0  6156
2 25397  98.5482  42.6220 0001855  72.4807 287.6547 14.23061421332402
UO-36
1 25693U 99021A   04337.84189749  .00000308  00000-0  61139-4 0  6962
2 25693  64.5566 166.6678 0042273 236.8379 122.8636 14.78430681302796
SO-41
1 26545U 00057A   04336.87555424  .00000452  00000-0  78185-4 0  9411
2 26545  64.5566 185.3724 0028573 339.8632  20.1298 14.79949577225727
MO-46
1 26548U 00057D   04336.96347306  .00000833  00000-0  12088-3 0   437
2 26548  64.5553 170.1702 0027792 326.2683  33.6659 14.82530893226049
SO-42
1 26549U 00057E   04337.79840194  .00000553  00000-0  93668-4 0    09
2 26549  64.5563 190.0902 0028528 349.4266  10.6233 14.78839334225719
NO-44
1 26931U 01043C   04337.83779713  .00000175  00000-0  10120-3 0  9126
2 26931  67.0549  13.4823 0007297 269.4775  90.5524 14.29345300165705
AO-49
1 27605U 02058A   04337.11171513  .00000548  00000-0  10415-3 0  5999
2 27605  64.5598  14.5014 0085352 278.6448  80.5005 14.71991073104843
SO-50
1 27607U 02058C   04337.61619376  .00000680  00000-0  12697-3 0  5823
2 27607  64.5602  17.5178 0086275 277.4381  81.6926 14.70814673104824
AO-51
1 28375U 04025K   04336.78192487  .00000216  00000-0  78203-4 0  1229
2 28375  98.2413  40.8863 0085088 106.8320 254.2216 14.40416091 22198
NOAA-10
1 16969U 86073A   04337.54372568  .00000093  00000-0  56313-4 0  4968
2 16969  98.7612 336.8731 0012383 349.6932  10.4001 14.27228726947041
NOAA-11
1 19531U 88089A   04336.76422837 -.00000051  00000-0 -35576-5 0  3529
2 19531  98.8578  59.4822 0012359 146.7224 213.4711 14.14741547835016
NOAA-12
1 21263U 91032A   04337.42799885  .00000259  00000-0  12856-3 0  8415
2 21263  98.6853 323.5029 0012007 281.6737  78.3099 14.25435694704216
MET-3/5
1 21655U 91056A   04337.11130515  .00000051  00000-0  10000-3 0  6834
2 21655  82.5535 297.8748 0013592  11.6127 348.5313 13.16995576639379
MET-2/21
1 22782U 93055A   04336.62846055  .00000093  00000-0  70995-4 0   699
2 22782  82.5519  57.7016 0021410 320.4775  39.4823 13.83576381568255
OKEAN-4
1 23317U 94066A   04337.81710794  .00000906  00000-0  11072-3 0  4876
2 23317  82.5400  80.4633 0023895  64.8710 295.4971 14.81991159546824
NOAA-14
1 23455U 94089A   04337.36968665  .00000396  00000-0  23489-3 0  3750
2 23455  99.1189  16.2132 0009500 189.9877 170.1078 14.13516523511693
SICH-1
1 23657U 95046A   04337.84128002  .00000802  00000-0  99897-4 0  2909
2 23657  82.5300 221.2487 0025514  49.8798 310.4631 14.81014613498896
NOAA-15
1 25338U 98030A   04337.39711268  .00000120  00000-0  69904-4 0  8225
2 25338  98.5170 345.7063 0010025 209.8907 150.1701 14.24471980340736
RESURS
1 25394U 98043A   04337.89981244  .00000074  00000-0  50884-4 0  9618
2 25394  98.5647  46.4656 0001945  40.3217 319.8107 14.24038580332519
FENGYUN1
1 25730U 99025A   04335.55282433 -.00000042  00000-0 -16289-7 0 02937
2 25730 098.6053 339.3209 0013584 308.9629 051.0332 14.11784867286486
OKEAN-0
1 25860U 99039A   04337.80954931  .00000384  00000-0  66876-4 0  2947
2 25860  97.7784   6.1290 0002021 105.2178 254.9245 14.73164157289090
NOAA-16
1 26536U 00055A   04337.39751884  .00000021  00000-0  35775-4 0  1271
2 26536  98.9879 289.0061 0009772 262.6064  97.3998 14.12182151216281
NOAA-17
1 27453U 02032A   04337.42820557  .00000227  00000-0  11882-3 0  1477
2 27453  98.6850  47.7253 0010912 265.6503  94.3404 14.23603391126844
HUBBLE
1 20580U 90037B   04337.72733375  .00001298  00000-0  90214-4 0  2193
2 20580  28.4669 108.6374 0003768 340.9923  19.0525 14.99471314600725
UARS
1 21701U 91063B   04337.48956355 -.00000101  00000-0  11340-4 0  3239
2 21701  56.9802 267.3288 0004775  78.5281 281.6275 15.03697360723905
PO-34
1 25520U 98064B   04336.83191499  .00001856  00000-0  84350-4 0   637
2 25520  28.4604 191.4213 0005655 236.4884 123.5168 15.15948073336604
ISS
1 25544U 98067A   04337.98782078  .00017811  00000-0  14381-3 0  2762
2 25544  51.6367 184.2355 0004244  75.5956  75.3203 15.70939066344837
OO-38
1 26063U 00004C   04337.11304852  .00000035  00000-0  32668-4 0  2240
2 26063 100.2247 154.8880 0036571 249.8612 109.8619 14.35686606254014
NO-45
1 26932U 01043D   04337.82131432  .00000237  00000-0  12520-3 0  9075
2 26932  67.0597  13.1738 0007685 283.3347  76.6911 14.29459535165736


Read previous mail | Read next mail


 13.09.2026 09:32:41lGo back Go up